| time (UTC) | temp F | wind direction | speed MPH | gust MPH | rain 1hr in | rain 24hr in | rain mn in | humidity % | barometer mb |
| 20260901141031 | 66 | 0 | 0.0 | 1.0 | 0.03 | 1.90 | 1.90 | 99 | 1017.2 |
| 20260901140528 | 66 | 0 | 0.0 | 2.0 | 0.03 | 1.89 | 1.89 | 99 | 1017.4 |
| 20260901140053 | 66 | 0 | 0.0 | 2.0 | 0.05 | 1.89 | 1.89 | 99 | 1017.5 |
| 20260901135529 | 66 | 0 | 0.0 | 1.0 | 0.08 | 1.89 | 1.89 | 99 | 1017.5 |
| 20260901135029 | 66 | 233 | 0.0 | 1.0 | 0.09 | 1.89 | 1.89 | 99 | 1017.4 |
| 20260901134614 | 66 | 0 | 0.0 | 1.0 | 0.12 | 1.89 | 1.89 | 99 | 1017.5 |
| 20260901134027 | 66 | 225 | 0.0 | 1.0 | 0.17 | 1.89 | 1.89 | 99 | 1017.5 |
| 20260901133529 | 66 | 0 | 0.0 | 0.0 | 0.26 | 1.89 | 1.89 | 99 | 1017.4 |
| 20260901133048 | 66 | 0 | 0.0 | 4.0 | 0.35 | 1.89 | 1.89 | 99 | 1017.3 |
| 20260901132530 | 65 | 0 | 0.0 | 4.0 | 0.51 | 1.89 | 1.89 | 99 | 1017.3 |
| 20260901132030 | 65 | 286 | 1.0 | 4.0 | 0.67 | 1.89 | 1.89 | 99 | 1017.2 |
| 20260901131554 | 65 | 313 | 0.0 | 1.0 | 0.73 | 1.88 | 1.88 | 99 | 1017.3 |
| 20260901131027 | 65 | 326 | 0.0 | 1.0 | 0.81 | 1.87 | 1.87 | 99 | 1017.3 |
| 20260901130529 | 65 | 330 | 0.0 | 1.0 | 0.93 | 1.86 | 1.86 | 99 | 1017.3 |
| 20260901130050 | 65 | 0 | 0.0 | 1.0 | 1.16 | 1.84 | 1.84 | 99 | 1017.4 |
| 20260901125530 | 65 | 0 | 0.0 | 1.0 | 1.35 | 1.81 | 1.81 | 99 | 1017.6 |
| 20260901125030 | 65 | 245 | 0.0 | 1.0 | 1.38 | 1.79 | 1.79 | 99 | 1017.7 |
| 20260901124553 | 65 | 0 | 0.0 | 1.0 | 1.36 | 1.77 | 1.77 | 99 | 1017.5 |
| 20260901124028 | 65 | 0 | 0.0 | 2.0 | 1.31 | 1.71 | 1.71 | 99 | 1017.6 |
| 20260901123533 | 65 | 0 | 0.0 | 2.0 | 1.24 | 1.62 | 1.62 | 99 | 1017.7 |
| 20260901123045 | 65 | 0 | 1.0 | 2.0 | 1.17 | 1.53 | 1.53 | 98 | 1017.8 |
| 20260901122527 | 65 | 0 | 0.0 | 2.0 | 1.03 | 1.35 | 1.35 | 98 | 1017.5 |
| 20260901122027 | 65 | 262 | 0.0 | 2.0 | 0.94 | 1.22 | 1.22 | 98 | 1017.8 |
| 20260901121559 | 65 | 283 | 0.0 | 2.0 | 0.89 | 1.14 | 1.14 | 98 | 1017.6 |
| 20260901121028 | 65 | 0 | 0.0 | 2.0 | 0.83 | 1.04 | 1.04 | 98 | 1017.6 |
| 20260901120527 | 65 | 0 | 0.0 | 5.0 | 0.70 | 0.90 | 0.90 | 98 | 1017.7 |
| 20260901120050 | 65 | 312 | 1.0 | 5.0 | 0.46 | 0.64 | 0.64 | 98 | 1018.0 |
| 20260901115530 | 65 | 316 | 1.0 | 2.0 | 0.29 | 0.45 | 0.45 | 98 | 1018.3 |
| 20260901115032 | 65 | 307 | 0.0 | 1.0 | 0.28 | 0.41 | 0.41 | 98 | 1017.6 |
| 20260901114559 | 65 | 0 | 0.0 | 1.0 | 0.30 | 0.41 | 0.41 | 98 | 1017.0 |
| 20260901114027 | 65 | 0 | 0.0 | 1.0 | 0.30 | 0.40 | 0.40 | 98 | 1016.8 |
| 20260901113527 | 65 | 304 | 0.0 | 0.0 | 0.29 | 0.38 | 0.38 | 98 | 1016.9 |
| 20260901113047 | 65 | 0 | 0.0 | 0.0 | 0.26 | 0.35 | 0.35 | 98 | 1016.8 |
| 20260901112528 | 65 | 0 | 0.0 | 0.0 | 0.22 | 0.31 | 0.31 | 98 | 1017.2 |
| 20260901112029 | 65 | 0 | 0.0 | 0.0 | 0.19 | 0.28 | 0.28 | 98 | 1017.4 |
| 20260901111548 | 65 | 0 | 0.0 | 0.0 | 0.15 | 0.24 | 0.24 | 98 | 1017.4 |
| 20260901111029 | 65 | 0 | 0.0 | 0.0 | 0.13 | 0.22 | 0.22 | 98 | 1017.4 |
| 20260901110526 | 65 | 0 | 0.0 | 0.0 | 0.10 | 0.19 | 0.19 | 98 | 1017.4 |
| 20260901110049 | 65 | 0 | 0.0 | 0.0 | 0.09 | 0.18 | 0.18 | 98 | 1017.5 |
| 20260901105528 | 65 | 0 | 0.0 | 0.0 | 0.07 | 0.16 | 0.16 | 98 | 1017.5 |
| 20260901105033 | 65 | 0 | 0.0 | 1.0 | 0.03 | 0.12 | 0.12 | 98 | 1017.4 |
| 20260901104551 | 65 | 0 | 0.0 | 1.0 | 0.02 | 0.11 | 0.11 | 98 | 1017.3 |
| 20260901104028 | 65 | 0 | 0.0 | 1.0 | 0.02 | 0.10 | 0.10 | 98 | 1017.6 |
| 20260901103526 | 65 | 297 | 0.0 | 1.0 | 0.01 | 0.09 | 0.09 | 98 | 1017.3 |
| 20260901103100 | 65 | 0 | 0.0 | 0.0 | 0.01 | 0.09 | 0.09 | 98 | 1017.2 |
| 20260901102531 | 65 | 0 | 0.0 | 0.0 | 0.02 | 0.09 | 0.09 | 98 | 1017.1 |
| 20260901102029 | 65 | 0 | 0.0 | 0.0 | 0.02 | 0.09 | 0.09 | 98 | 1017.1 |
| 20260901101546 | 65 | 0 | 0.0 | 0.0 | 0.02 | 0.09 | 0.09 | 98 | 1016.9 |
| 20260901101029 | 65 | 0 | 0.0 | 0.0 | 0.03 | 0.09 | 0.09 | 98 | 1017.0 |
| 20260901100529 | 65 | 0 | 0.0 | 0.0 | 0.03 | 0.09 | 0.09 | 98 | 1016.8 |
| 20260901100048 | 65 | 0 | 0.0 | 0.0 | 0.04 | 0.09 | 0.09 | 98 | 1016.8 |
| 20260901095527 | 65 | 0 | 0.0 | 0.0 | 0.04 | 0.09 | 0.09 | 98 | 1016.7 |
| 20260901095029 | 65 | 0 | 0.0 | 0.0 | 0.05 | 0.09 | 0.09 | 98 | 1016.8 |
| 20260901094544 | 65 | 0 | 0.0 | 0.0 | 0.05 | 0.09 | 0.09 | 98 | 1016.9 |
| 20260901094030 | 65 | 0 | 0.0 | 0.0 | 0.04 | 0.08 | 0.08 | 98 | 1017.0 |
| 20260901093527 | 65 | 0 | 0.0 | 0.0 | 0.05 | 0.08 | 0.08 | 98 | 1017.2 |
| 20260901093047 | 65 | 0 | 0.0 | 0.0 | 0.05 | 0.08 | 0.08 | 98 | 1017.1 |
| 20260901092529 | 65 | 0 | 0.0 | 0.0 | 0.04 | 0.07 | 0.07 | 98 | 1017.2 |
| 20260901092032 | 65 | 0 | 0.0 | 0.0 | 0.05 | 0.07 | 0.07 | 98 | 1017.2 |
| 20260901091551 | 65 | 0 | 0.0 | 0.0 | 0.05 | 0.07 | 0.07 | 98 | 1017.3 |
| 20260901091033 | 65 | 0 | 0.0 | 0.0 | 0.05 | 0.06 | 0.06 | 98 | 1017.2 |
| 20260901090529 | 65 | 0 | 0.0 | 1.0 | 0.05 | 0.06 | 0.06 | 97 | 1017.3 |
| 20260901090051 | 65 | 0 | 0.0 | 1.0 | 0.04 | 0.05 | 0.05 | 97 | 1017.3 |
| 20260901085528 | 65 | 0 | 0.0 | 1.0 | 0.04 | 0.05 | 0.05 | 97 | 1017.4 |
| 20260901085027 | 65 | 281 | 0.0 | 1.0 | 0.03 | 0.04 | 0.04 | 97 | 1017.4 |
| 20260901084549 | 65 | 0 | 0.0 | 0.0 | 0.03 | 0.04 | 0.04 | 97 | 1017.4 |
| 20260901084028 | 65 | 0 | 0.0 | 0.0 | 0.02 | 0.03 | 0.03 | 97 | 1017.4 |
| 20260901083530 | 65 | 0 | 0.0 | 0.0 | 0.02 | 0.03 | 0.03 | 97 | 1017.4 |
| 20260901083046 | 65 | 0 | 0.0 | 0.0 | 0.02 | 0.03 | 0.03 | 97 | 1017.4 |
| 20260901082530 | 65 | 0 | 0.0 | 0.0 | 0.02 | 0.03 | 0.03 | 97 | 1017.5 |
| 20260901082028 | 65 | 0 | 0.0 | 0.0 | 0.01 | 0.02 | 0.02 | 97 | 1017.5 |
| 20260901081546 | 65 | 0 | 0.0 | 0.0 | 0.01 | 0.02 | 0.02 | 97 | 1017.4 |
| 20260901081028 | 65 | 0 | 0.0 | 0.0 | 0.00 | 0.01 | 0.01 | 97 | 1017.5 |
| 20260901080531 | 66 | 0 | 0.0 | 0.0 | 0.00 | 0.01 | 0.01 | 97 | 1017.5 |
| 20260901080055 | 66 | 0 | 0.0 | 0.0 | 0.00 | 0.01 | 0.01 | 97 | 1017.5 |
| 20260901075527 | 66 | 0 | 0.0 | 0.0 | 0.00 | 0.01 | 0.01 | 97 | 1017.4 |
| 20260901075032 | 66 | 0 | 0.0 | 0.0 | 0.00 | 0.01 | 0.01 | 97 | 1017.5 |
| 20260901074602 | 66 | 0 | 0.0 | 0.0 | 0.00 | 0.01 | 0.01 | 97 | 1017.5 |
| 20260901074029 | 66 | 0 | 0.0 | 0.0 | 0.00 | 0.01 | 0.01 | 97 | 1017.6 |
| 20260901073527 | 66 | 0 | 0.0 | 0.0 | 0.00 | 0.01 | 0.01 | 97 | 1017.7 |
| 20260901073044 | 66 | 0 | 0.0 | 0.0 | 0.00 | 0.01 | 0.01 | 97 | 1017.8 |
| 20260901072528 | 66 | 0 | 0.0 | 0.0 | 0.00 | 0.01 | 0.01 | 97 | 1017.8 |
| 20260901072026 | 66 | 0 | 0.0 | 0.0 | 0.00 | 0.01 | 0.01 | 97 | 1018.0 |
| 20260901071554 | 66 | 0 | 0.0 | 0.0 | 0.00 | 0.01 | 0.01 | 97 | 1017.9 |
| 20260901071027 | 66 | 0 | 0.0 | 0.0 | 0.00 | 0.01 | 0.01 | 96 | 1018.1 |
| 20260901070528 | 66 | 0 | 0.0 | 0.0 | 0.00 | 0.01 | 0.01 | 96 | 1018.2 |
| 20260901070055 | 66 | 0 | 0.0 | 0.0 | 0.00 | 0.01 | 0.01 | 96 | 1018.2 |
| 20260901065528 | 66 | 0 | 0.0 | 0.0 | 0.00 | 0.01 | 0.01 | 96 | 1018.3 |
| 20260901065027 | 66 | 0 | 0.0 | 0.0 | 0.00 | 0.01 | 0.01 | 96 | 1018.2 |
| 20260901064549 | 66 | 0 | 0.0 | 0.0 | 0.00 | 0.01 | 0.01 | 96 | 1018.2 |
| 20260901064027 | 66 | 0 | 0.0 | 0.0 | 0.00 | 0.01 | 0.01 | 96 | 1018.3 |
| 20260901063527 | 66 | 0 | 0.0 | 0.0 | 0.00 | 0.01 | 0.01 | 96 | 1018.4 |
| 20260901063058 | 66 | 0 | 0.0 | 0.0 | 0.00 | 0.01 | 0.01 | 96 | 1018.3 |
| 20260901062530 | 66 | 0 | 0.0 | 0.0 | 0.00 | 0.01 | 0.01 | 96 | 1018.3 |
| 20260901062029 | 66 | 0 | 0.0 | 0.0 | 0.00 | 0.01 | 0.01 | 96 | 1018.4 |
| 20260901061545 | 66 | 0 | 0.0 | 0.0 | 0.01 | 0.01 | 0.01 | 95 | 1018.4 |
| 20260901061029 | 66 | 0 | 0.0 | 0.0 | 0.01 | 0.01 | 0.01 | 95 | 1018.3 |
| 20260901060528 | 66 | 0 | 0.0 | 0.0 | 0.01 | 0.01 | 0.01 | 95 | 1018.1 |
| 20260901060044 | 66 | 0 | 0.0 | 0.0 | 0.01 | 0.01 | 0.01 | 95 | 1018.1 |
| 20260901055528 | 66 | 0 | 0.0 | 0.0 | 0.01 | 0.01 | 0.01 | 95 | 1018.0 |
| 20260901055030 | 66 | 0 | 0.0 | 0.0 | 0.01 | 0.01 | 0.01 | 95 | 1018.0 |
| 20260901054551 | 66 | 0 | 0.0 | 0.0 | 0.01 | 0.01 | 0.01 | 94 | 1018.3 |
| 20260901054027 | 66 | 0 | 0.0 | 0.0 | 0.01 | 0.01 | 0.01 | 94 | 1018.3 |
| 20260901053529 | 66 | 0 | 0.0 | 0.0 | 0.01 | 0.01 | 0.01 | 93 | 1018.5 |
| 20260901053052 | 66 | 0 | 0.0 | 0.0 | 0.01 | 0.01 | 0.01 | 93 | 1018.5 |
| 20260901052528 | 67 | 0 | 0.0 | 0.0 | 0.01 | 0.01 | 0.01 | 93 | 1018.6 |
| 20260901052030 | 67 | 0 | 0.0 | 0.0 | 0.01 | 0.01 | 0.01 | 92 | 1018.5 |
| 20260901051559 | 67 | 0 | 0.0 | 0.0 | 0.00 | 0.00 | 0.00 | 92 | 1018.6 |
| 20260901051029 | 67 | 0 | 0.0 | 0.0 | 0.00 | 0.00 | 0.00 | 91 | 1018.5 |
| 20260901050529 | 67 | 0 | 0.0 | 0.0 | 0.00 | 0.00 | 0.00 | 91 | 1018.7 |
| 20260901050053 | 67 | 0 | 0.0 | 0.0 | 0.00 | 0.00 | 0.00 | 90 | 1018.6 |
| 20260901045529 | 67 | 0 | 0.0 | 0.0 | 0.00 | 0.00 | 0.00 | 90 | 1018.6 |
| 20260901045027 | 67 | 0 | 0.0 | 0.0 | 0.00 | 0.00 | 0.00 | 90 | 1018.6 |
| 20260901044551 | 67 | 0 | 0.0 | 0.0 | 0.00 | 0.00 | 0.00 | 90 | 1018.7 |
| 20260901044030 | 67 | 0 | 0.0 | 0.0 | 0.00 | 0.00 | 0.00 | 90 | 1018.6 |
| 20260901043531 | 67 | 0 | 0.0 | 0.0 | 0.00 | 0.00 | 0.00 | 90 | 1018.6 |
| 20260901043046 | 67 | 0 | 0.0 | 0.0 | 0.00 | 0.00 | 0.00 | 90 | 1018.5 |
| 20260901042528 | 67 | 0 | 0.0 | 1.0 | 0.00 | 0.00 | 0.00 | 90 | 1018.4 |
| 20260901042028 | 67 | 0 | 0.0 | 1.0 | 0.00 | 0.00 | 0.00 | 90 | 1018.4 |
| 20260901041544 | 67 | 0 | 0.0 | 0.0 | 0.00 | 0.00 | 0.00 | 89 | 1018.5 |
| 20260901041028 | 68 | 0 | 0.0 | 0.0 | 0.00 | 0.00 | 0.00 | 89 | 1018.5 |
| 20260901040528 | 68 | 0 | 0.0 | 0.0 | 0.00 | 0.00 | 0.00 | 89 | 1018.6 |
| 20260901040110 | 68 | 0 | 0.0 | 0.0 | 0.00 | 0.00 | 0.00 | 89 | 1018.4 |
| 20260901035528 | 68 | 0 | 0.0 | 0.0 | 0.00 | 0.00 | 0.00 | 89 | 1018.5 |
| 20260901035028 | 68 | 0 | 0.0 | 0.0 | 0.00 | 0.00 | 0.00 | 88 | 1018.6 |
| 20260901034548 | 68 | 0 | 0.0 | 0.0 | 0.00 | 0.00 | 0.00 | 88 | 1018.5 |
| 20260901034028 | 68 | 0 | 0.0 | 0.0 | 0.00 | 0.00 | 0.00 | 88 | 1018.5 |
| 20260901033529 | 68 | 0 | 0.0 | 0.0 | 0.00 | 0.00 | 0.00 | 87 | 1018.6 |
| 20260901033057 | 68 | 0 | 0.0 | 0.0 | 0.00 | 0.00 | 0.00 | 87 | 1018.7 |
| 20260901032529 | 68 | 0 | 0.0 | 0.0 | 0.00 | 0.00 | 0.00 | 87 | 1018.8 |
| 20260901032029 | 68 | 0 | 0.0 | 0.0 | 0.00 | 0.00 | 0.00 | 87 | 1018.7 |
| 20260901031546 | 68 | 0 | 0.0 | 0.0 | 0.00 | 0.00 | 0.00 | 87 | 1018.9 |
| 20260901031028 | 68 | 0 | 0.0 | 1.0 | 0.00 | 0.00 | 0.00 | 87 | 1018.7 |
| 20260901030529 | 68 | 0 | 0.0 | 1.0 | 0.00 | 0.00 | 0.00 | 87 | 1018.8 |
| 20260901030051 | 68 | 0 | 0.0 | 1.0 | 0.00 | 0.00 | 0.00 | 88 | 1018.7 |
| 20260901025530 | 68 | 0 | 0.0 | 1.0 | 0.00 | 0.00 | 0.00 | 88 | 1018.9 |
| 20260901025032 | 68 | 0 | 0.0 | 1.0 | 0.00 | 0.00 | 0.00 | 88 | 1018.9 |
| 20260901024546 | 68 | 129 | 0.0 | 0.0 | 0.00 | 0.00 | 0.00 | 89 | 1018.8 |
| 20260901024032 | 68 | 0 | 0.0 | 0.0 | 0.00 | 0.00 | 0.00 | 89 | 1018.9 |
| 20260901023532 | 68 | 0 | 0.0 | 0.0 | 0.00 | 0.00 | 0.00 | 89 | 1018.7 |
| 20260901023057 | 68 | 0 | 0.0 | 1.0 | 0.00 | 0.00 | 0.00 | 89 | 1018.8 |
| 20260901022528 | 68 | 0 | 0.0 | 1.0 | 0.00 | 0.00 | 0.00 | 90 | 1018.7 |
| 20260901022027 | 68 | 0 | 0.0 | 0.0 | 0.00 | 0.00 | 0.00 | 90 | 1018.8 |
| 20260901021554 | 68 | 0 | 0.0 | 0.0 | 0.00 | 0.00 | 0.00 | 90 | 1018.6 |
| 20260901021027 | 68 | 0 | 0.0 | 1.0 | 0.00 | 0.00 | 0.00 | 90 | 1018.5 |
| 20260901020528 | 68 | 0 | 0.0 | 1.0 | 0.00 | 0.00 | 0.00 | 90 | 1018.5 |
| 20260901020050 | 68 | 0 | 0.0 | 0.0 | 0.00 | 0.00 | 0.00 | 91 | 1018.3 |
| 20260901015529 | 68 | 0 | 0.0 | 0.0 | 0.00 | 0.00 | 0.00 | 91 | 1018.6 |
| 20260901015032 | 68 | 0 | 0.0 | 0.0 | 0.00 | 0.00 | 0.00 | 91 | 1018.4 |
| 20260901014547 | 68 | 0 | 0.0 | 0.0 | 0.00 | 0.00 | 0.00 | 91 | 1018.5 |
| 20260901014033 | 68 | 0 | 0.0 | 0.0 | 0.00 | 0.00 | 0.00 | 91 | 1018.6 |
| 20260901013529 | 68 | 0 | 0.0 | 0.0 | 0.00 | 0.00 | 0.00 | 91 | 1018.7 |
| 20260901013107 | 68 | 0 | 0.0 | 0.0 | 0.00 | 0.00 | 0.00 | 91 | 1018.6 |
| 20260901012528 | 68 | 0 | 0.0 | 0.0 | 0.00 | 0.00 | 0.00 | 91 | 1018.7 |
| 20260901012032 | 68 | 0 | 0.0 | 0.0 | 0.00 | 0.00 | 0.00 | 91 | 1018.7 |
| 20260901011556 | 68 | 0 | 0.0 | 0.0 | 0.00 | 0.00 | 0.00 | 90 | 1018.7 |
| 20260901011028 | 68 | 0 | 0.0 | 0.0 | 0.00 | 0.00 | 0.00 | 91 | 1018.8 |
| 20260901010529 | 68 | 0 | 0.0 | 0.0 | 0.00 | 0.00 | 0.00 | 91 | 1018.8 |
| 20260901010047 | 68 | 0 | 0.0 | 0.0 | 0.00 | 0.00 | 0.00 | 90 | 1018.7 |
| 20260901005529 | 68 | 0 | 0.0 | 0.0 | 0.00 | 0.00 | 0.00 | 91 | 1018.8 |
| 20260901005030 | 68 | 0 | 0.0 | 0.0 | 0.00 | 0.00 | 0.00 | 90 | 1018.7 |
| 20260901004555 | 68 | 0 | 0.0 | 0.0 | 0.00 | 0.00 | 0.00 | 90 | 1018.7 |
| 20260901004029 | 68 | 0 | 0.0 | 0.0 | 0.00 | 0.00 | 0.00 | 90 | 1018.7 |
| 20260901003527 | 68 | 0 | 0.0 | 0.0 | 0.00 | 0.00 | 0.00 | 90 | 1018.8 |
| 20260901003049 | 69 | 0 | 0.0 | 0.0 | 0.00 | 0.00 | 0.00 | 90 | 1018.6 |
| 20260901002529 | 69 | 0 | 0.0 | 0.0 | 0.00 | 0.00 | 0.00 | 90 | 1018.8 |
| 20260901002029 | 69 | 0 | 0.0 | 0.0 | 0.00 | 0.00 | 0.00 | 90 | 1018.7 |
| 20260901001553 | 69 | 0 | 0.0 | 0.0 | 0.00 | 0.00 | 0.00 | 90 | 1018.7 |
| 20260901001029 | 69 | 0 | 0.0 | 0.0 | 0.00 | 0.00 | 0.00 | 89 | 1018.6 |
| 20260901000526 | 69 | 0 | 0.0 | 0.0 | 0.00 | 0.00 | 0.00 | 89 | 1018.6 |
| 20260901000051 | 69 | 0 | 0.0 | 0.0 | 0.00 | 0.00 | 0.00 | 88 | 1018.6 |
| 20260831235530 | 69 | 0 | 0.0 | 0.0 | 0.00 | 0.00 | 0.00 | 88 | 1018.5 |
| 20260831235029 | 69 | 0 | 0.0 | 0.0 | 0.00 | 0.00 | 0.00 | 88 | 1018.6 |
| 20260831234554 | 69 | 0 | 0.0 | 0.0 | 0.00 | 0.00 | 0.00 | 88 | 1018.6 |
| 20260831234029 | 69 | 0 | 0.0 | 0.0 | 0.00 | 0.00 | 0.00 | 88 | 1018.5 |
| 20260831233532 | 70 | 0 | 0.0 | 0.0 | 0.00 | 0.00 | 0.00 | 88 | 1018.7 |
| 20260831233055 | 70 | 0 | 0.0 | 0.0 | 0.00 | 0.00 | 0.00 | 87 | 1018.7 |
| 20260831232528 | 70 | 0 | 0.0 | 0.0 | 0.00 | 0.00 | 0.00 | 87 | 1018.7 |
| 20260831232028 | 70 | 0 | 0.0 | 0.0 | 0.00 | 0.00 | 0.00 | 87 | 1018.7 |
| 20260831231551 | 70 | 0 | 0.0 | 0.0 | 0.00 | 0.00 | 0.00 | 87 | 1018.7 |
| 20260831231028 | 70 | 0 | 0.0 | 0.0 | 0.00 | 0.00 | 0.00 | 86 | 1018.8 |
| 20260831230529 | 70 | 0 | 0.0 | 0.0 | 0.00 | 0.00 | 0.00 | 85 | 1018.8 |
| 20260831230045 | 70 | 0 | 0.0 | 0.0 | 0.00 | 0.00 | 0.00 | 85 | 1018.9 |
| 20260831225529 | 71 | 0 | 0.0 | 0.0 | 0.00 | 0.00 | 0.00 | 85 | 1018.9 |
| 20260831225029 | 71 | 0 | 0.0 | 0.0 | 0.00 | 0.00 | 0.00 | 85 | 1019.0 |
| 20260831224544 | 71 | 0 | 0.0 | 0.0 | 0.00 | 0.00 | 0.00 | 84 | 1019.0 |
| 20260831224029 | 71 | 0 | 0.0 | 0.0 | 0.00 | 0.00 | 0.00 | 84 | 1019.1 |
| 20260831223528 | 71 | 0 | 0.0 | 0.0 | 0.00 | 0.00 | 0.00 | 84 | 1018.9 |
| 20260831223045 | 71 | 0 | 0.0 | 0.0 | 0.00 | 0.00 | 0.00 | 83 | 1019.0 |
| 20260831222528 | 72 | 0 | 0.0 | 0.0 | 0.00 | 0.00 | 0.00 | 83 | 1019.1 |
| 20260831222026 | 72 | 0 | 0.0 | 0.0 | 0.00 | 0.00 | 0.00 | 83 | 1019.1 |
| 20260831221614 | 72 | 0 | 0.0 | 0.0 | 0.00 | 0.00 | 0.00 | 81 | 1019.2 |
| 20260831221028 | 72 | 0 | 0.0 | 0.0 | 0.00 | 0.00 | 0.00 | 82 | 1019.2 |
| 20260831220528 | 73 | 0 | 0.0 | 0.0 | 0.00 | 0.00 | 0.00 | 82 | 1019.1 |
| 20260831220048 | 73 | 0 | 0.0 | 0.0 | 0.00 | 0.00 | 0.00 | 81 | 1019.2 |
| 20260831215530 | 73 | 0 | 0.0 | 0.0 | 0.00 | 0.00 | 0.00 | 80 | 1019.0 |
| 20260831215034 | 73 | 0 | 0.0 | 1.0 | 0.00 | 0.00 | 0.00 | 79 | 1019.1 |
| 20260831214555 | 74 | 0 | 0.0 | 1.0 | 0.00 | 0.00 | 0.00 | 78 | 1019.1 |
| 20260831214028 | 74 | 0 | 0.0 | 3.0 | 0.00 | 0.00 | 0.00 | 78 | 1019.1 |
| 20260831213530 | 74 | 0 | 0.0 | 3.0 | 0.00 | 0.00 | 0.00 | 77 | 1019.1 |
| 20260831213050 | 74 | 0 | 0.0 | 3.0 | 0.00 | 0.00 | 0.00 | 76 | 1019.2 |
| 20260831212527 | 75 | 0 | 0.0 | 0.0 | 0.00 | 0.00 | 0.00 | 76 | 1019.0 |
| 20260831212033 | 75 | 0 | 0.0 | 0.0 | 0.00 | 0.00 | 0.00 | 75 | 1019.1 |
| 20260831211550 | 75 | 0 | 0.0 | 0.0 | 0.00 | 0.00 | 0.00 | 74 | 1019.1 |
| 20260831211029 | 76 | 0 | 0.0 | 0.0 | 0.00 | 0.00 | 0.00 | 73 | 1019.0 |
| 20260831210528 | 76 | 0 | 0.0 | 1.0 | 0.00 | 0.00 | 0.00 | 72 | 1018.9 |
| 20260831210045 | 76 | 0 | 0.0 | 1.0 | 0.00 | 0.00 | 0.00 | 72 | 1018.9 |
| 20260831205529 | 76 | 0 | 0.0 | 3.0 | 0.00 | 0.00 | 0.00 | 73 | 1019.0 |
| 20260831205029 | 76 | 0 | 0.0 | 3.0 | 0.00 | 0.00 | 0.00 | 74 | 1019.0 |
| 20260831204544 | 76 | 0 | 0.0 | 1.0 | 0.00 | 0.00 | 0.00 | 71 | 1019.0 |
| 20260831204027 | 76 | 0 | 0.0 | 0.0 | 0.00 | 0.00 | 0.00 | 73 | 1019.1 |
| 20260831203526 | 76 | 0 | 0.0 | 0.0 | 0.00 | 0.00 | 0.00 | 74 | 1019.0 |
| 20260831203113 | 76 | 0 | 0.0 | 0.0 | 0.00 | 0.00 | 0.00 | 72 | 1019.0 |
| 20260831202530 | 77 | 0 | 0.0 | 1.0 | 0.00 | 0.00 | 0.00 | 73 | 1019.1 |
| 20260831202028 | 77 | 0 | 0.0 | 2.0 | 0.00 | 0.00 | 0.00 | 72 | 1019.0 |
| 20260831201600 | 77 | 0 | 0.0 | 2.0 | 0.00 | 0.00 | 0.00 | 71 | 1019.0 |
| 20260831201032 | 78 | 148 | 0.0 | 2.0 | 0.00 | 0.00 | 0.00 | 67 | 1019.1 |
| 20260831200529 | 78 | 0 | 0.0 | 2.0 | 0.00 | 0.00 | 0.00 | 65 | 1019.1 |
| 20260831200131 | 79 | 153 | 0.0 | 2.0 | 0.00 | 0.00 | 0.00 | 70 | 1019.2 |
| 20260831195532 | 77 | 184 | 0.0 | 2.0 | 0.00 | 0.00 | 0.00 | 67 | 1019.3 |
| 20260831195028 | 77 | 0 | 0.0 | 1.0 | 0.00 | 0.00 | 0.00 | 72 | 1019.3 |
| 20260831194559 | 76 | 114 | 0.0 | 1.0 | 0.00 | 0.00 | 0.00 | 70 | 1019.4 |
| 20260831194027 | 76 | 0 | 0.0 | 1.0 | 0.00 | 0.00 | 0.00 | 70 | 1019.3 |
| 20260831193530 | 76 | 0 | 0.0 | 1.0 | 0.00 | 0.00 | 0.00 | 72 | 1019.5 |
| 20260831193051 | 76 | 0 | 0.0 | 1.0 | 0.00 | 0.00 | 0.00 | 72 | 1019.5 |
| 20260831192526 | 76 | 0 | 0.0 | 1.0 | 0.00 | 0.00 | 0.00 | 71 | 1019.7 |
| 20260831192028 | 76 | 145 | 0.0 | 1.0 | 0.00 | 0.00 | 0.00 | 73 | 1019.5 |
| 20260831191548 | 76 | 0 | 0.0 | 1.0 | 0.00 | 0.00 | 0.00 | 73 | 1019.5 |
| 20260831191029 | 76 | 0 | 0.0 | 1.0 | 0.00 | 0.00 | 0.00 | 70 | 1019.6 |
| 20260831190532 | 77 | 0 | 0.0 | 1.0 | 0.00 | 0.00 | 0.00 | 70 | 1019.7 |
| 20260831190047 | 77 | 0 | 0.0 | 1.0 | 0.00 | 0.00 | 0.00 | 70 | 1019.9 |
| 20260831185530 | 77 | 97 | 0.0 | 1.0 | 0.00 | 0.00 | 0.00 | 69 | 1020.1 |
| 20260831185031 | 77 | 0 | 0.0 | 0.0 | 0.00 | 0.00 | 0.00 | 70 | 1020.2 |
| 20260831184553 | 77 | 0 | 0.0 | 0.0 | 0.00 | 0.00 | 0.00 | 67 | 1020.1 |
| 20260831184028 | 77 | 0 | 0.0 | 0.0 | 0.00 | 0.00 | 0.00 | 66 | 1020.2 |
| 20260831183533 | 77 | 170 | 0.0 | 1.0 | 0.00 | 0.00 | 0.00 | 67 | 1020.0 |
| 20260831183049 | 78 | 0 | 0.0 | 1.0 | 0.00 | 0.00 | 0.00 | 66 | 1020.0 |
| 20260831182530 | 78 | 109 | 0.0 | 2.0 | 0.00 | 0.00 | 0.00 | 65 | 1020.2 |
| 20260831182030 | 78 | 221 | 0.0 | 2.0 | 0.00 | 0.00 | 0.00 | 71 | 1020.3 |
| 20260831181550 | 77 | 14 | 0.0 | 1.0 | 0.00 | 0.00 | 0.00 | 69 | 1020.1 |
| 20260831181026 | 77 | 0 | 0.0 | 1.0 | 0.00 | 0.00 | 0.00 | 71 | 1020.2 |
| 20260831180529 | 77 | 189 | 0.0 | 1.0 | 0.00 | 0.00 | 0.00 | 71 | 1020.1 |
| 20260831180052 | 77 | 0 | 0.0 | 1.0 | 0.00 | 0.00 | 0.00 | 73 | 1020.1 |
| 20260831175530 | 76 | 0 | 0.0 | 1.0 | 0.00 | 0.00 | 0.00 | 73 | 1020.0 |
| 20260831175028 | 77 | 0 | 0.0 | 1.0 | 0.00 | 0.00 | 0.00 | 72 | 1019.9 |
| 20260831174550 | 76 | 0 | 0.0 | 2.0 | 0.00 | 0.00 | 0.00 | 68 | 1020.1 |
| 20260831174029 | 76 | 162 | 0.0 | 2.0 | 0.00 | 0.00 | 0.00 | 75 | 1020.2 |
| 20260831173528 | 76 | 53 | 0.0 | 2.0 | 0.00 | 0.00 | 0.00 | 70 | 1020.4 |
| 20260831173101 | 76 | 55 | 0.0 | 2.0 | 0.00 | 0.00 | 0.00 | 69 | 1020.5 |
| 20260831172529 | 76 | 0 | 0.0 | 2.0 | 0.00 | 0.00 | 0.00 | 72 | 1020.5 |
| 20260831172027 | 76 | 10 | 0.0 | 2.0 | 0.00 | 0.00 | 0.00 | 73 | 1020.4 |
| 20260831171554 | 75 | 11 | 0.0 | 2.0 | 0.00 | 0.00 | 0.00 | 69 | 1020.4 |
| 20260831171031 | 76 | 91 | 0.0 | 1.0 | 0.00 | 0.00 | 0.00 | 71 | 1020.6 |
| 20260831170528 | 76 | 0 | 0.0 | 1.0 | 0.00 | 0.00 | 0.00 | 71 | 1020.6 |
| 20260831170045 | 75 | 0 | 0.0 | 1.0 | 0.00 | 0.00 | 0.00 | 71 | 1020.7 |
| 20260831165530 | 75 | 35 | 0.0 | 1.0 | 0.00 | 0.00 | 0.00 | 73 | 1020.8 |
| 20260831165028 | 75 | 0 | 0.0 | 3.0 | 0.00 | 0.00 | 0.00 | 72 | 1020.8 |
| 20260831164553 | 75 | 323 | 1.0 | 3.0 | 0.00 | 0.00 | 0.00 | 68 | 1020.9 |
| 20260831164028 | 75 | 0 | 0.0 | 4.0 | 0.00 | 0.00 | 0.00 | 67 | 1020.9 |
| 20260831163528 | 76 | 0 | 1.0 | 4.0 | 0.00 | 0.00 | 0.00 | 69 | 1020.9 |
| 20260831163052 | 76 | 219 | 0.0 | 0.0 | 0.00 | 0.00 | 0.00 | 70 | 1021.0 |
| 20260831162528 | 75 | 0 | 0.0 | 1.0 | 0.00 | 0.00 | 0.00 | 69 | 1021.1 |
| 20260831162029 | 76 | 0 | 0.0 | 1.0 | 0.00 | 0.00 | 0.00 | 68 | 1021.0 |
| 20260831161613 | 76 | 185 | 0.0 | 2.0 | 0.00 | 0.00 | 0.00 | 67 | 1021.1 |
| 20260831161031 | 75 | 0 | 0.0 | 2.0 | 0.00 | 0.00 | 0.00 | 70 | 1021.3 |
| 20260831160530 | 76 | 253 | 1.0 | 2.0 | 0.00 | 0.00 | 0.00 | 67 | 1021.4 |
| 20260831160059 | 76 | 319 | 1.0 | 2.0 | 0.00 | 0.00 | 0.00 | 68 | 1021.6 |
| 20260831155533 | 75 | 0 | 1.0 | 2.0 | 0.00 | 0.00 | 0.00 | 68 | 1021.4 |
| 20260831155029 | 75 | 256 | 0.0 | 2.0 | 0.00 | 0.00 | 0.00 | 71 | 1021.2 |
| 20260831154612 | 75 | 258 | 0.0 | 2.0 | 0.00 | 0.00 | 0.00 | 70 | 1021.3 |
| 20260831154027 | 76 | 204 | 0.0 | 3.0 | 0.00 | 0.00 | 0.00 | 71 | 1021.4 |
| 20260831153531 | 75 | 0 | 0.0 | 3.0 | 0.00 | 0.00 | 0.00 | 75 | 1021.2 |
| 20260831153052 | 74 | 260 | 0.0 | 3.0 | 0.00 | 0.00 | 0.00 | 75 | 1021.3 |
| 20260831152530 | 73 | 0 | 0.0 | 3.0 | 0.00 | 0.00 | 0.00 | 75 | 1021.1 |
| 20260831152030 | 73 | 233 | 0.0 | 2.0 | 0.00 | 0.00 | 0.00 | 72 | 1021.3 |
| 20260831151546 | 73 | 164 | 0.0 | 1.0 | 0.00 | 0.00 | 0.00 | 78 | 1021.1 |
| 20260831151031 | 72 | 0 | 0.0 | 1.0 | 0.00 | 0.00 | 0.00 | 78 | 1021.2 |
| 20260831150530 | 72 | 0 | 0.0 | 3.0 | 0.00 | 0.00 | 0.00 | 76 | 1021.2 |
| 20260831150054 | 72 | 359 | 0.0 | 3.0 | 0.00 | 0.00 | 0.00 | 80 | 1021.4 |
| 20260831145529 | 72 | 326 | 1.0 | 3.0 | 0.00 | 0.00 | 0.00 | 74 | 1021.2 |
| 20260831145032 | 72 | 0 | 0.0 | 1.0 | 0.00 | 0.00 | 0.00 | 78 | 1021.2 |
| 20260831144553 | 71 | 0 | 0.0 | 4.0 | 0.00 | 0.00 | 0.00 | 81 | 1021.5 |
| 20260831144029 | 71 | 0 | 0.0 | 4.0 | 0.00 | 0.00 | 0.00 | 82 | 1021.4 |
| 20260831143529 | 71 | 297 | 2.0 | 4.0 | 0.00 | 0.00 | 0.00 | 78 | 1021.4 |
| 20260831143049 | 71 | 0 | 0.0 | 3.0 | 0.00 | 0.00 | 0.00 | 79 | 1021.4 |
| 20260831142530 | 70 | 0 | 0.0 | 3.0 | 0.00 | 0.00 | 0.00 | 80 | 1021.2 |
| 20260831142028 | 70 | 336 | 0.0 | 2.0 | 0.00 | 0.00 | 0.00 | 82 | 1021.3 |
| 20260831141558 | 70 | 322 | 0.0 | 2.0 | 0.00 | 0.00 | 0.00 | 82 | 1021.3 |